Probability
9 8 6 5 4 3 3 2 1 0 0 1 2 3 3 1 1 2 3 3 3 1 0 0 0 0 0 0 0 0 0 0 0 0 0 0 0 0 0 0 0 0 0
9 9 8 6 4 3 3 2 1 0 0 0 2 3 3 2 1 2 3 3 3 2 1 0 0 0 0 0 0 0 0 0 0 0 0 0 0 0 0 0 0 0 0
10 10 10 9 7 4 3 1 1 1 1 1 2 3 3 2 1 1 3 3 3 2 1 0 0 0 0 0 0 0 0 0 0 0 0 0 0 0 0 0 0 0 0
10 10 10 10 9 8 5 3 2 2 3 3 4 4 3 2 1 1 3 3 1 1 0 0 0 0 0 0 0 0 0 0 0 0 0 0 0 0 0 0 0 0 0
9 10 10 10 10 8 6 4 4 4 4 5 6 5 4 3 2 2 2 2 1 0 0 0 0 0 0 0 0 0 0 0 0 0 0 0 0 0 0 0 0 0 0
10 11 11 10 10 8 6 5 5 5 5 6 5 5 5 5 3 1 1 2 1 0 0 0 0 0 0 0 0 0 0 0 0 0 0 0 0 0 0 0 0 0 0
11 11 11 10 10 8 6 6 6 5 5 4 4 4 5 4 2 0 0 1 1 0 0 0 0 0 0 0 0 0 0 0 0 0 0 0 0 0 0 0 0 0 0
12 11 10 8 7 7 6 6 5 4 4 3 3 3 3 2 0 0 0 0 0 0 0 0 0 0 0 0 0 0 0 0 0 0 0 0 0 0 0 0 0 0 0
11 10 8 6 5 4 4 4 4 3 3 3 3 3 2 1 0 0 0 0 0 0 0 0 0 0 0 0 0 0 0 0 0 0 0 0 0 0 0 0 0 0 0
9 8 7 6 5 4 4 3 3 3 3 3 3 3 2 1 0 0 0 0 0 0 0 0 0 0 0 0 0 0 0 0 0 0 0 0 0 0 0 0 0 0 0
8 7 6 6 6 6 5 4 3 3 3 2 2 2 1 0 0 0 0 0 0 0 0 0 0 0 0 0 0 0 0 0 0 0 0 0 0 0 0 0 0 0 0
7 6 4 5 7 6 4 3 2 2 1 1 1 1 0 0 0 0 0 0 0 0 0 0 0 0 0 0 0 0 0 0 0 0 0 0 0 0 0 0 0 0 0
4 3 3 4 5 5 2 1 1 1 0 0 0 0 0 0 0 0 0 0 0 0 0 0 0 0 0 0 0 0 0 0 0 0 0 0 0 0 0 0 0 0 0
1 1 1 2 4 3 2 0 0 0 0 0 0 0 0 0 0 0 0 0 0 0 0 0 0 0 0 0 0 0 0 0 0 0 0 0 0 0 0 0 0 0 0
0 0 0 1 2 2 1 0 0 0 0 0 0 0 0 0 0 0 0 0 0 0 0 0 0 0 0 0 0 0 0 0 0 0 0 0 0 0 0 0 0 0 0
0 0 0 0 1 1 0 0 0 0 0 0 0 0 0 0 0 0 0 0 0 0 0 0 0 0 0 0 0 0 0 0 0 0 0 0 0 0 0 0 0 0 0
0 0 0 0 0 0 0 0 0 0 0 0 0 0 0 0 0 0 0 0 0 0 0 0 0 0 0 0 0 0 0 0 0 0 0 0 0 0 0 0 0 0 0
0 0 0 0 0 0 0 0 0 0 0 0 0 0 0 0 0 0 0 0 0 0 0 0 0 0 0 0 0 0 0 0 0 0 0 0 0 0 0 0 0 0 0
0 0 0 0 0 0 0 0 0 0 0 0 0 0 0 0 0 0 0 0 0 0 0 0 0 0 0 0 0 0 0 0 0 0 0 0 0 0 0 0 0 0 0
0 0 0 0 0 0 0 0 0 0 0 0 0 0 0 0 0 0 0 0 0 0 0 0 0 0 0 0 0 0 0 0 0 0 0 0 0 0 0 0 0 0 0
0 0 0 0 0 0 0 0 0 0 0 0 0 0 0 0 0 0 0 0 0 0 0 0 0 0 0 0 0 0 0 0 0 0 0 0 0 0 0 0 0 0 0
0 0 0 0 0 0 0 0 0 0 0 0 0 0 0 0 0 0 0 0 0 0 0 0 0 0 0 0 0 0 0 0 0 0 0 0 0 0 0 0 0 0 0
0 0 0 0 0 0 0 0 0 0 0 0 0 0 0 0 0 0 0 0 0 0 0 0 0 0 0 0 0 0 0 0 0 0 0 0 0 0 0 0 0 0 0
0 0 0 0 0 0 0 0 0 0 0 0 0 0 0 0 0 0 0 0 0 0 0 0 0 0 0 0 0 0 0 0 0 0 0 0 0 0 0 0 0 0 0
0 0 0 0 0 0 0 0 0 0 0 0 0 0 0 0 0 0 0 0 0 0 0 0 0 0 0 0 0 0 0 0 0 0 0 0 0 0 0 0 0 0 0
0 0 0 0 0 0 0 0 0 0 0 0 0 0 0 0 0 0 0 0 0 0 0 0 0 0 0 0 0 0 0 0 0 0 0 0 0 0 0 0 0 0 0
Wind_Speed
8 7 7 7 7 6 6 7 6 6 6 7 7 6 6 6 6 5 5 5 5 4 3 3 3 2 1 1 1 1 2 3 3 3 2 2 2 3 3 3 4 5 6
8 7 7 6 7 6 6 7 7 7 7 7 7 7 7 6 6 7 6 5 5 5 4 4 4 2 2 1 1 1 1 2 3 3 2 1 2 3 3 3 4 5 5
8 8 7 7 7 7 7 7 7 7 6 6 6 6 6 6 6 6 6 5 5 5 5 5 4 3 3 2 2 2 1 1 2 2 2 2 2 1 1 2 3 3 4
8 8 7 7 8 7 7 7 7 7 7 6 6 6 6 6 6 6 5 5 4 4 4 4 4 5 5 4 3 3 2 1 1 1 2 2 2 2 1 2 3 2 3
8 8 8 7 7 6 6 6 6 7 7 6 5 4 4 4 5 5 5 5 4 3 3 3 3 4 5 4 3 3 3 2 2 2 2 2 2 1 2 2 3 3 3
8 8 7 7 7 7 7 6 6 5 5 5 5 5 4 3 4 6 5 4 4 3 2 2 2 2 3 4 4 3 4 3 3 2 2 3 3 3 2 2 2 2 3
7 7 6 6 7 7 7 6 6 5 5 5 4 4 4 3 5 6 7 4 3 3 3 2 2 1 2 2 2 3 2 3 4 3 3 4 3 3 2 2 2 3 4
7 7 6 6 6 5 5 6 5 4 4 4 4 4 3 2 3 4 5 4 3 3 3 3 2 1 1 2 1 1 1 2 3 3 3 4 4 3 3 3 4 3 4
7 6 7 7 6 6 6 5 4 4 4 3 3 3 3 2 2 3 4 3 3 2 2 2 1 1 1 1 1 0 1 3 3 3 4 4 5 5 3 1 1 1 3
6 6 6 6 6 6 6 5 4 5 5 5 5 4 4 4 4 5 4 3 3 2 2 2 3 2 2 2 1 1 1 2 3 3 3 4 4 4 3 2 2 2 2
6 6 6 6 7 7 6 5 6 6 7 6 6 5 5 5 5 7 6 3 3 2 2 2 2 4 4 4 2 1 1 2 2 2 3 3 3 2 2 1 2 3 3
9 8 7 7 6 7 8 7 7 7 8 6 6 6 5 5 6 7 8 7 5 4 2 2 2 5 5 5 4 4 4 4 2 2 2 3 3 3 3 3 3 3 4
10 10 9 9 8 8 8 8 7 6 6 5 6 6 5 5 6 10 10 9 8 5 3 5 5 6 5 5 6 7 5 3 3 2 3 3 3 3 3 3 4 3 3
11 10 9 10 10 9 7 6 6 6 7 6 6 6 5 5 5 5 5 5 7 6 5 6 8 9 8 7 6 5 4 3 2 2 2 3 3 3 3 3 3 3 3
11 10 9 9 9 10 9 8 7 6 6 7 6 5 5 5 4 5 4 4 3 4 4 5 6 5 6 5 5 5 4 4 4 3 3 3 4 4 4 3 3 3 3
10 8 7 7 7 8 10 10 14 12 14 13 10 8 6 7 8 10 11 11 10 9 7 6 5 5 5 5 5 4 4 5 4 4 3 3 4 4 4 4 3 3 3
9 8 7 7 7 7 7 8 8 9 12 13 12 11 11 10 11 12 12 13 12 11 8 6 5 4 4 4 4 4 4 4 4 4 4 4 4 4 4 4 4 4 4
8 9 8 6 6 6 6 6 6 7 6 5 7 11 12 12 12 12 11 10 8 7 5 4 4 4 3 4 4 4 4 4 4 4 4 5 5 5 5 5 4 5 5
7 6 6 6 6 7 6 6 6 7 6 4 4 6 9 10 11 11 9 7 5 5 4 4 3 3 3 3 3 3 4 4 4 4 4 5 5 5 5 5 5 7 6
7 10 9 7 7 7 6 6 6 6 5 5 4 3 3 5 6 6 5 5 4 4 3 3 3 3 3 3 3 3 4 4 4 4 4 4 4 4 5 6 6 6 5
6 8 11 8 6 6 6 6 6 6 5 5 4 4 7 5 5 5 4 4 3 3 2 2 2 2 2 2 3 3 4 3 3 4 4 5 5 5 5 5 6 6 6
6 6 6 7 6 6 6 6 6 6 6 6 4 5 9 6 4 4 4 3 3 2 2 2 2 2 2 2 2 2 3 3 4 5 5 6 5 6 6 6 6 6 6
7 7 7 7 6 8 7 6 5 5 5 5 5 4 4 4 4 4 3 2 2 2 2 2 3 2 2 2 2 2 2 3 4 5 6 6 6 6 6 6 7 8 7
7 8 8 7 7 6 6 6 5 5 5 5 5 4 4 4 3 3 2 2 3 3 3 3 3 3 3 3 2 2 2 4 5 4 6 6 7 6 6 6 7 8 7
7 7 7 6 6 6 6 6 5 5 5 5 4 4 3 3 3 3 3 3 4 3 4 3 2 3 3 4 4 4 6 7 6 6 5 5 6 7 7 7 7 7 7
7 7 6 6 6 5 5 5 5 5 4 4 4 3 3 3 3 3 3 3 3 2 3 2 3 3 4 3 5 7 7 8 8 9 5 4 6 6 7 6 8 7 7
Wind_Direction
171 169 165 169 171 171 175 177 175 176 174 176 179 179 180 180 179 177 186 184 188 202 206 198 214 200 181 158 132 133 149 156 201 267 266 264 213 225 216 220 231 230 235
171 163 164 165 167 172 179 180 177 178 179 180 177 181 187 186 183 184 195 194 195 205 212 206 221 209 200 204 173 185 194 186 186 241 279 275 235 229 223 224 232 231 234
168 166 166 168 173 179 182 181 177 175 174 176 173 184 191 190 190 191 192 194 198 204 205 201 209 193 208 216 207 209 225 214 179 198 260 276 274 265 234 251 250 255 251
169 171 174 179 181 183 180 178 177 173 172 175 179 184 190 189 189 192 189 191 191 199 201 199 200 193 202 206 211 217 215 221 206 203 249 273 272 277 233 248 272 264 261
169 177 185 181 177 177 175 175 174 176 177 173 172 175 178 180 189 185 183 184 184 193 203 208 215 208 205 201 206 212 208 216 224 223 245 268 272 275 251 241 249 273 275
174 182 183 175 174 177 178 174 173 172 166 157 166 170 170 187 182 181 179 182 176 181 198 217 224 214 211 201 202 193 188 197 216 220 236 241 256 252 252 243 244 272 284
172 175 173 173 177 179 177 168 171 172 161 158 171 169 175 191 183 178 179 170 164 177 188 192 210 207 198 196 214 209 204 214 204 199 221 236 242 238 235 251 238 233 244
165 169 168 166 170 167 162 166 173 164 161 163 164 170 173 197 183 173 174 165 159 174 182 180 186 222 205 184 185 208 251 260 243 218 226 243 246 245 230 233 240 256 268
166 169 170 168 164 161 160 164 157 142 139 136 137 141 132 93 105 134 147 133 126 121 113 110 134 129 355 141 127 193 295 302 294 270 260 268 272 270 254 251 281 272 281
160 158 154 151 149 150 151 144 133 130 127 119 101 93 99 84 71 89 120 119 114 101 72 62 69 76 53 85 117 132 297 301 328 343 334 317 305 303 286 231 230 243 267
123 117 118 124 125 125 120 113 113 111 106 103 96 81 77 75 68 73 88 98 111 107 86 50 28 46 55 60 74 77 313 320 337 339 335 331 331 332 323 289 238 223 235
100 97 95 96 104 110 107 103 104 107 103 98 95 80 60 53 57 66 72 73 76 86 71 50 43 48 53 50 50 36 33 33 20 7 358 347 340 334 325 317 297 266 249
95 92 90 85 80 86 97 102 100 97 100 96 89 82 63 47 45 53 57 58 62 73 69 64 56 51 53 49 45 40 39 36 26 17 358 338 326 322 328 329 328 319 305
96 94 92 90 83 76 75 80 89 93 98 94 90 87 74 53 42 38 44 50 54 60 60 57 57 56 52 44 37 36 36 35 38 20 347 332 336 350 353 345 339 339 337
93 92 90 89 92 85 76 66 75 69 93 102 100 100 94 72 39 50 64 59 57 64 68 58 49 44 40 34 31 28 26 26 25 10 8 359 352 351 342 339 338 342 335
97 94 94 94 93 94 94 79 60 75 78 83 92 97 83 85 77 68 67 69 69 75 74 64 55 48 43 35 30 23 21 18 11 8 8 3 355 348 340 338 342 338 324
101 102 102 103 104 103 103 104 97 71 66 71 76 81 84 82 75 70 71 73 68 70 70 64 58 50 42 35 29 26 16 6 6 11 8 358 349 343 341 338 338 333 325
94 98 101 102 105 106 104 103 104 104 90 60 53 69 75 74 71 67 68 71 57 53 64 66 58 50 45 37 28 22 14 9 10 9 5 358 352 347 343 338 333 325 316
90 93 95 97 102 104 103 99 97 95 93 83 64 53 60 68 66 62 64 70 73 62 57 57 52 47 40 31 23 20 18 13 7 2 356 351 345 341 335 329 323 319 315
91 98 102 101 100 101 101 101 98 96 91 84 76 68 61 67 63 53 56 66 72 70 66 59 49 45 40 33 28 25 19 10 -0 355 344 338 331 325 320 318 317 315 311
90 94 97 98 98 100 100 100 100 98 96 90 79 77 91 87 81 72 64 59 63 66 64 61 55 44 37 36 34 27 18 358 346 337 330 323 319 315 310 308 309 309 307
90 89 92 97 97 96 97 96 96 96 97 94 81 74 78 79 79 75 67 58 56 60 64 65 54 45 47 49 37 22 3 345 333 325 319 314 311 309 308 307 310 311 309
92 92 90 90 94 98 94 91 94 96 94 92 91 83 77 77 75 74 68 57 57 55 49 59 64 47 36 36 36 28 353 325 313 310 310 309 309 307 307 306 307 309 310
93 95 96 94 93 94 96 93 92 95 95 94 91 88 85 83 78 69 58 52 58 54 50 59 68 63 49 30 11 352 329 315 310 302 301 299 301 303 304 304 302 303 305
94 96 97 97 98 98 98 97 95 94 96 99 98 95 91 85 74 61 51 54 62 62 57 54 50 40 31 19 3 343 331 328 324 319 305 298 298 301 302 302 302 304 304
94 97 97 98 99 100 102 102 100 102 103 103 101 98 95 87 79 69 61 61 60 58 54 49 42 35 18 3 351 344 335 331 329 326 316 302 303 304 309 305 305 306 307